Flag for U.S.A. Weather past 2 weeks in Hartford, Connecticut, U.S.A.

Now
75 °F

Clear.


Feels Like: 76 °F
Forecast: 64 / 79 °F
Wind: 8 mph from North

Location: Hartford-Brainard Airport

Current Time: Sep 4, 2015 at 2:31:56 AM

Latest Report: Sep 4, 2015 at 1:53 AM


Visibility: 10 mi

Pressure: 29.93 "Hg

Humidity: 79%

Dew point: 68 °F

Location of HartfordLocation

Historic Weather in Hartford — Graph

°F

Hartford temperature yesterday

Maximum temperature yesterday: 90 °F (at 4:53 PM)
Minimum temperature yesterday: 66 °F (at 6:53 AM)
Average temperature yesterday: 79 °F

Past Weeks' High & Low Weather Summary

 TemperatureHumidityPressure
High91 °F (Sep 2, 2:53 PM)97% (Aug 20, 1:53 AM)30.22 "Hg (Aug 20, 1:53 AM)
Low57 °F (Aug 28, 5:53 AM)32% (Sep 1, 4:53 PM)29.80 "Hg (Aug 25, 4:53 PM)
Average75 °F71%29.99 "Hg
* Reported Aug 20 12:53 AM — Sep 4 12:53 AM, Hartford, Weather by CustomWeather, © 2015

Note: Actual official high and low records may vary slightly from our data, if they occured in-between our weather recording intervals... More about our weather records

Advertising

Hartford weather history for previous 24 hours

 ConditionsComfort  
Time TempWeatherWind HumidityBarometerVisibility
12:53 AM
Fri, Sep 4
76 °FClear.6 mph77%29.92 "Hg10 mi
11:53 PM
Thu, Sep 3
78 °FClear.7 mph69%29.90 "Hg10 mi
10:53 PM80 °FClear.9 mph67%29.89 "Hg10 mi
9:53 PM81 °FClear.7 mph67%29.89 "Hg10 mi
8:53 PM82 °FPassing clouds.8 mph63%29.86 "Hg10 mi
7:53 PM82 °FSunny.No wind60%29.83 "Hg10 mi
6:53 PM86 °FSunny.5 mph49%29.82 "Hg10 mi
5:53 PM89 °FSunny.7 mph43%29.83 "Hg10 mi
4:53 PM90 °FSunny.3 mph43%29.81 "Hg10 mi
3:53 PM89 °FSunny.8 mph46%29.82 "Hg10 mi
2:53 PM88 °FSunny.N/A52%29.82 "Hg10 mi
1:53 PM89 °FSunny.6 mph53%29.84 "Hg10 mi
12:53 PM87 °FSunny.7 mph55%29.85 "Hg10 mi
11:53 AM84 °FSunny.3 mph59%29.86 "Hg10 mi
10:53 AM82 °FSunny.7 mph65%29.88 "Hg10 mi
9:53 AM78 °FSunny.6 mph71%29.88 "Hg9 mi
8:53 AM75 °FSunny.6 mph74%29.88 "Hg9 mi
7:53 AM70 °FSunny.No wind90%29.88 "Hg9 mi
6:53 AM66 °FFog.No wind96%29.86 "Hg4 mi
5:53 AM67 °FClear.No wind93%29.85 "Hg9 mi
4:53 AM67 °FClear.No wind90%29.85 "Hg10 mi
3:53 AM69 °FClear.3 mph87%29.85 "Hg10 mi
2:53 AM69 °FClear.5 mph87%29.85 "Hg10 mi
Weather by CustomWeather, © 2015

See weather overviewHow to use our weather pages